This demonstration page uses our WeatherBlox Daily Observations layout. Learn more.

Left ArrowRight Arrow

39.08367, -84.50855

Hourly Observations for August 31, 2015

Temp ( °F °C ) Dew Point ( °F °C ) Humidity (%) Winds ( mph kmh ) Pressure ( in mb ) Visibility ( mi km ) Precip ( " mm )
12:53 am 00:53 Clear 68 20 67 19.4 96 96 N N/A 30.07 1018 8 13 N/A
1:50 am 01:50 Clear with Mist and Fog 66 19 66 19 100 100 N N/A 30.06 1018 2 3 N/A
1:53 am 01:53 Clear with Mist and Fog 67 19.4 67 19.4 100 100 N N/A 30.08 1019 2 3 N/A
1:59 am 01:59 Clear with Mist and Fog 67 19.4 67 19.4 100 100 N N/A 30.06 1018 3 5 N/A
2:53 am 02:53 Clear 67 19.4 67 19.4 100 100 N N/A 30.07 1018 10 16 N/A
3:37 am 03:37 Clear with Mist and Fog 65 18.3 65 18.3 100 100 N N/A 30.06 1018 1 2 N/A
3:39 am 03:39 Mostly Cloudy with Mist and Fog 65 18.3 65 18.3 100 100 N N/A 30.06 1018 1 1 N/A
3:49 am 03:49 Mostly Clear with Mist and Fog 66 19 66 19 100 100 N N/A 30.06 1018 3 4 N/A
3:53 am 03:53 Mostly Clear with Mist and Fog 66 18.9 66 18.9 100 100 N N/A 30.06 1018 3 5 N/A
4:14 am 04:14 Clear with Mist and Fog 64 18 64 18 100 100 N N/A 30.06 1018 1 2 N/A
4:21 am 04:21 Mostly Clear with Mist and Fog 65 18.3 65 18.3 100 100 N N/A 30.06 1018 1 2 N/A
4:25 am 04:25 Clear with Mist and Fog 65 18.3 65 18.3 100 100 N N/A 30.06 1018 3 5 N/A
4:30 am 04:30 Clear with Mist and Fog 66 19 66 19 100 100 N N/A 30.06 1018 2 3 N/A
4:40 am 04:40 Clear with Mist and Fog 64 18 64 18 100 100 N N/A 30.06 1018 4 6 N/A
4:53 am 04:53 Clear with Mist and Fog 65 18.3 65 18.3 100 100 N N/A 30.06 1018 5 8 N/A
5:16 am 05:16 Partly Cloudy with Mist and Fog 64 18 64 18 100 100 N N/A 30.06 1018 3 5 N/A
5:19 am 05:19 Partly Cloudy with Mist and Fog 66 18.9 66 18.9 100 100 N N/A 30.06 1018 2 2 N/A
5:27 am 05:27 Mostly Cloudy with Mist and Fog 65 18.3 65 18.3 100 100 N N/A 30.06 1018 1 2 N/A
5:31 am 05:31 Partly Cloudy with Mist and Fog 65 18.3 65 18.3 100 100 N N/A 30.06 1018 2 3 N/A
5:38 am 05:38 Partly Cloudy with Mist and Fog 66 19 66 19 100 100 N N/A 30.06 1018 5 8 N/A
5:53 am 05:53 Clear with Mist and Fog 64 17.8 64 17.8 100 100 N N/A 30.07 1018 3 5 N/A
6:12 am 06:12 Mostly Clear with Mist and Fog 64 18 64 18 100 100 N N/A 30.06 1018 2 3 N/A
6:20 am 06:20 Clear with Mist and Fog 64 18 64 18 100 100 N N/A 30.06 1018 6 10 N/A
6:44 am 06:44 Mostly Clear with Mist and Fog 63 17 63 17 100 100 N N/A 30.06 1018 2 3 N/A
6:46 am 06:46 Mostly Cloudy with Mist and Fog 63 17.2 63 17.2 100 100 N N/A 30.06 1018 1 2 N/A
6:51 am 06:51 Partly Cloudy with Patchy Fog 63 17 63 17 100 100 N N/A 30.06 1018 4 6 N/A
6:53 am 06:53 Partly Cloudy with Patchy Fog 63 17.2 63 17.2 100 100 N N/A 30.09 1019 4 6 N/A
7:53 am 07:53 Partly Cloudy with Mist and Fog 66 18.9 66 18.9 100 100 N N/A 30.11 1020 6 10 N/A
8:53 am 08:53 Mostly Cloudy 70 21.1 68 20 93 93 N N/A 30.12 1020 8 13 N/A
9:53 am 09:53 Sunny 76 24.4 70 21.1 82 82 W 7 11 30.13 1020 10 16 N/A
10:53 am 10:53 Sunny 79 26.1 70 21.1 74 74 WSW 6 9 30.14 1021 10 16 N/A
11:53 am 11:53 Mostly Cloudy 81 27.2 70 21.1 69 69 WSW 5 7 30.13 1020 10 16 N/A
12:53 pm 12:53 Mostly Cloudy 84 28.9 68 20 59 59 SW 8 13 30.11 1020 10 16 N/A
1:53 pm 13:53 Mostly Cloudy 83 28.3 66 18.9 57 57 SW 9 15 30.10 1019 10 16 N/A
2:53 pm 14:53 Mostly Cloudy 85 29.4 66 18.9 53 53 SSW 6 9 30.08 1019 10 16 N/A
3:53 pm 15:53 Mostly Cloudy 85 29.4 68 20 57 57 SW 8 13 30.06 1018 10 16 N/A
4:53 pm 16:53 Mostly Cloudy 85 29.4 67 19.4 55 55 S 7 11 30.04 1017 10 16 N/A
5:53 pm 17:53 Mostly Sunny 85 29.4 67 19.4 55 55 SSW 9 15 30.04 1017 10 16 N/A
6:53 pm 18:53 Partly Cloudy 81 27.2 70 21.1 69 69 SSW 3 6 30.04 1017 10 16 N/A
7:53 pm 19:53 Cloudy 79 26.1 70 21.1 74 74 N N/A 30.05 1018 10 16 N/A
8:53 pm 20:53 Mostly Cloudy 76 24.4 68 20 77 77 NE 5 7 30.07 1018 10 16 N/A
9:53 pm 21:53 Mostly Clear 71 21.7 69 20.6 94 94 N N/A 30.09 1019 9 14 N/A
10:53 pm 22:53 Partly Cloudy 70 21.1 69 20.6 97 97 N N/A 30.09 1019 8 13 N/A
11:53 pm 23:53 Clear with Mist and Fog 69 20.6 68 20 96 96 N N/A 30.09 1019 6 10 N/A

Powered by AerisWeather